SQ6MTB Weather Reports


Display with metric or nautical units.
time (UTC)temp
F
wind
direction
speed
MPH
gust
MPH
rain 1hr
in
rain 24hr
in
rain mn
in
humidity
%
barometer
mb
20260508181543 51 65 1.0 4.0 0.00 0.05 0.02 72 1020.6
20260508181102 51 50 1.0 4.0 0.00 0.05 0.02 71 1020.5
20260508180527 51 55 1.0 4.0 0.00 0.05 0.02 71 1020.5
20260508180048 51 53 1.0 4.0 0.00 0.05 0.02 71 1020.4
20260508175515 51 38 1.0 3.0 0.00 0.05 0.02 71 1020.4
20260508175034 52 74 1.0 3.0 0.00 0.05 0.02 71 1020.4
20260508174601 52 30 0.0 3.0 0.00 0.05 0.02 71 1020.5
20260508174007 52 51 0.0 2.0 0.00 0.05 0.02 71 1020.5
20260508173536 52 51 0.0 3.0 0.00 0.05 0.02 71 1020.4
20260508173053 52 42 1.0 3.0 0.00 0.05 0.02 71 1020.3
20260508172516 52 36 0.0 4.0 0.00 0.05 0.02 70 1020.4
20260508172037 52 63 2.0 4.0 0.00 0.05 0.02 70 1020.4
20260508171559 52 56 1.0 3.0 0.00 0.05 0.02 70 1020.3
20260508171022 52 57 1.0 4.0 0.00 0.05 0.02 70 1020.3
20260508170540 52 74 3.0 4.0 0.00 0.05 0.02 70 1020.2
20260508170058 52 74 2.0 4.0 0.00 0.05 0.02 70 1020.2
20260508165513 52 63 1.0 4.0 0.00 0.06 0.02 71 1020.3
20260508165041 52 65 1.0 3.0 0.00 0.06 0.02 70 1020.1
20260508164605 52 101 1.0 4.0 0.00 0.06 0.02 70 1020.1
20260508164026 52 60 2.0 4.0 0.00 0.06 0.02 71 1020.1
20260508163545 52 9 1.0 4.0 0.00 0.06 0.02 71 1020.3
20260508163124 52 5 2.0 4.0 0.00 0.06 0.02 70 1020.2
20260508162526 52 72 0.0 3.0 0.00 0.06 0.02 71 1020.2
20260508162045 52 46 0.0 4.0 0.00 0.06 0.02 70 1020.3
20260508161512 53 53 2.0 4.0 0.00 0.06 0.02 70 1020.3
20260508161030 53 69 1.0 4.0 0.00 0.06 0.02 69 1020.3
20260508160536 53 46 2.0 5.0 0.00 0.06 0.02 69 1020.2
20260508160053 53 29 2.0 5.0 0.00 0.06 0.02 68 1020.1
20260508155520 53 355 1.0 4.0 0.00 0.09 0.02 68 1020.2
20260508155037 53 27 0.0 8.0 0.00 0.09 0.02 67 1020.3
20260508154555 53 65 3.0 8.0 0.00 0.09 0.02 67 1020.2
20260508154013 53 44 2.0 3.0 0.00 0.09 0.02 68 1020.1
20260508153538 53 360 0.0 5.0 0.00 0.09 0.02 67 1020.1
20260508153059 53 16 3.0 5.0 0.00 0.09 0.02 68 1020.0
20260508152514 53 67 2.0 7.0 0.00 0.09 0.02 68 1020.0
20260508152037 53 58 3.0 7.0 0.00 0.09 0.02 68 1020.1
20260508151551 53 348 0.0 6.0 0.00 0.09 0.02 69 1020.2
20260508151018 53 97 3.0 6.0 0.00 0.09 0.02 67 1020.2
20260508150529 53 121 2.0 6.0 0.00 0.09 0.02 67 1020.2
20260508150046 53 70 2.0 9.0 0.00 0.09 0.02 68 1020.3
20260508145602 53 66 2.0 9.0 0.00 0.11 0.02 67 1020.4
20260508145016 53 61 3.0 6.0 0.00 0.11 0.02 67 1020.3
20260508144542 53 101 2.0 6.0 0.00 0.11 0.02 68 1020.4
20260508144004 53 26 2.0 6.0 0.00 0.11 0.02 67 1020.2
20260508143519 54 43 1.0 10.0 0.00 0.11 0.02 67 1020.2
20260508143033 54 71 3.0 10.0 0.00 0.11 0.02 67 1020.2
20260508142550 54 48 1.0 6.0 0.00 0.11 0.02 67 1020.1
20260508142106 54 5 2.0 6.0 0.00 0.11 0.02 67 1020.1
20260508141515 54 19 2.0 6.0 0.00 0.11 0.02 65 1020.0
20260508141042 54 41 3.0 5.0 0.00 0.11 0.02 65 1020.0
20260508140559 55 93 1.0 5.0 0.00 0.11 0.02 65 1020.0
20260508140014 55 52 2.0 5.0 0.00 0.11 0.02 65 1020.1
20260508135539 55 326 2.0 5.0 0.00 0.11 0.02 65 1020.1
20260508135055 55 10 1.0 3.0 0.00 0.11 0.02 63 1020.0
20260508134524 55 129 0.0 5.0 0.00 0.11 0.02 65 1020.0
20260508134034 54 335 0.0 5.0 0.00 0.11 0.02 67 1020.0
20260508133553 54 47 0.0 5.0 0.00 0.11 0.02 69 1020.0
20260508133014 53 12 0.0 5.0 0.00 0.11 0.02 68 1020.1
20260508132534 53 22 0.0 7.0 0.00 0.11 0.02 69 1020.1
20260508132050 53 46 0.0 7.0 0.00 0.11 0.02 68 1020.3
20260508131505 54 46 0.0 6.0 0.00 0.11 0.02 67 1020.4
20260508131020 54 38 0.0 5.0 0.00 0.11 0.02 67 1020.4
20260508130535 54 56 2.0 5.0 0.00 0.11 0.02 64 1020.4
20260508130055 54 50 0.0 5.0 0.00 0.11 0.02 65 1020.5
20260508125600 54 355 2.0 5.0 0.00 0.11 0.02 66 1020.5
20260508125011 54 55 0.0 5.0 0.00 0.11 0.02 66 1020.5
20260508124537 53 335 2.0 5.0 0.00 0.11 0.02 66 1020.6
20260508124054 53 347 0.0 2.0 0.00 0.11 0.02 68 1020.6
20260508123507 52 315 0.0 5.0 0.00 0.11 0.02 68 1020.6
20260508123036 52 323 1.0 6.0 0.00 0.11 0.02 69 1020.5
20260508122548 52 5 3.0 6.0 0.00 0.11 0.02 70 1020.5
20260508122105 52 5 0.0 5.0 0.00 0.11 0.02 71 1020.5
20260508121525 52 337 1.0 4.0 0.00 0.11 0.02 69 1020.5
20260508121041 52 9 1.0 4.0 0.00 0.11 0.02 70 1020.6
20260508120557 52 5 1.0 8.0 0.00 0.11 0.02 71 1020.7
20260508120020 52 346 2.0 8.0 0.00 0.11 0.02 71 1020.6
20260508115537 52 12 2.0 6.0 0.00 0.11 0.02 73 1020.7
20260508115052 52 5 0.0 6.0 0.00 0.11 0.02 72 1020.7
20260508114516 52 355 1.0 8.0 0.00 0.11 0.02 72 1020.7
20260508114033 52 336 1.0 5.0 0.00 0.11 0.02 71 1020.5
20260508113551 52 355 1.0 5.0 0.00 0.11 0.02 71 1020.6
20260508113005 52 342 1.0 5.0 0.00 0.11 0.02 70 1020.6
20260508112520 52 70 0.0 5.0 0.00 0.11 0.02 72 1020.5
20260508112046 52 248 1.0 4.0 0.00 0.11 0.02 72 1020.4
20260508111603 51 21 0.0 4.0 0.00 0.11 0.02 73 1020.4
20260508111026 51 325 1.0 4.0 0.00 0.11 0.02 72 1020.4
20260508110542 51 323 0.0 4.0 0.00 0.11 0.02 73 1020.5
20260508110133 51 360 0.0 3.0 0.00 0.11 0.02 74 1020.6
20260508105512 51 38 1.0 3.0 0.00 0.13 0.02 75 1020.6
20260508105038 51 360 0.0 2.0 0.00 0.13 0.02 74 1020.7
20260508104555 51 360 0.0 2.0 0.00 0.13 0.02 77 1020.6
20260508104015 51 351 0.0 2.0 0.00 0.13 0.02 75 1020.6
20260508103531 50 351 0.0 6.0 0.00 0.13 0.02 76 1020.6
20260508103049 50 346 3.0 6.0 0.00 0.13 0.02 76 1020.6
20260508102515 50 331 2.0 4.0 0.00 0.13 0.02 78 1020.7
20260508102029 50 299 1.0 4.0 0.00 0.13 0.02 78 1020.6
20260508101552 50 48 0.0 4.0 0.00 0.13 0.02 77 1020.7
20260508101103 50 30 1.0 4.0 0.00 0.13 0.02 78 1020.6
20260508100517 50 54 0.0 6.0 0.00 0.13 0.02 78 1020.7
20260508100030 50 306 3.0 6.0 0.00 0.13 0.02 77 1020.7
20260508095548 50 15 0.0 4.0 0.00 0.14 0.02 77 1020.7
20260508095052 50 341 2.0 5.0 0.00 0.14 0.02 78 1020.6
20260508094602 50 350 1.0 6.0 0.00 0.14 0.02 78 1020.7
20260508094015 50 328 0.0 5.0 0.00 0.14 0.02 79 1020.6
20260508093531 50 61 1.0 5.0 0.00 0.14 0.02 79 1020.7
20260508093057 49 40 1.0 3.0 0.00 0.14 0.02 80 1020.6
20260508092512 49 84 1.0 5.0 0.00 0.14 0.02 79 1020.6
20260508092029 49 74 1.0 5.0 0.00 0.14 0.02 80 1020.6
20260508091544 49 53 0.0 5.0 0.00 0.14 0.02 81 1020.7
20260508091101 48 50 1.0 5.0 0.00 0.14 0.02 81 1020.7
20260508090513 48 41 1.0 5.0 0.00 0.14 0.02 81 1020.7
20260508085558 48 276 0.0 0.0 0.00 0.14 0.02 83 1020.7
20260508085011 48 39 0.0 4.0 0.00 0.14 0.02 83 1020.7
20260508084538 48 49 1.0 5.0 0.00 0.14 0.02 83 1020.6
20260508084056 48 89 2.0 5.0 0.00 0.14 0.02 84 1020.6
20260508083507 47 59 1.0 4.0 0.00 0.14 0.02 85 1020.6
20260508083031 47 43 0.0 5.0 0.00 0.14 0.02 85 1020.6
20260508082547 47 113 2.0 5.0 0.00 0.14 0.02 85 1020.5
20260508082002 47 61 3.0 4.0 0.00 0.14 0.02 86 1020.4
20260508081529 47 57 1.0 4.0 0.00 0.14 0.02 86 1020.4
20260508081043 46 37 1.0 5.0 0.00 0.14 0.02 86 1020.4
20260508080559 46 53 3.0 5.0 0.00 0.14 0.02 87 1020.4
20260508080013 46 79 2.0 5.0 0.00 0.14 0.02 87 1020.5
20260508075539 46 55 2.0 4.0 0.00 0.17 0.02 87 1020.4
20260508075055 46 78 0.0 3.0 0.00 0.17 0.02 87 1020.4
20260508074523 46 41 1.0 5.0 0.00 0.17 0.02 87 1020.4
20260508074035 46 76 1.0 5.0 0.00 0.17 0.02 87 1020.3
20260508073553 46 46 2.0 5.0 0.00 0.17 0.02 88 1020.3
20260508073016 46 5 2.0 4.0 0.00 0.17 0.02 88 1020.2
20260508072534 46 360 0.0 4.0 0.00 0.17 0.02 89 1020.0
20260508072053 46 46 1.0 7.0 0.00 0.17 0.02 89 1020.0
20260508071513 45 64 2.0 7.0 0.00 0.17 0.02 89 1019.9
20260508071029 45 11 2.0 4.0 0.00 0.17 0.02 89 1019.9
20260508070547 45 68 0.0 5.0 0.00 0.17 0.02 90 1019.9
20260508070108 45 55 1.0 7.0 0.00 0.17 0.02 90 1019.8
20260508065517 45 63 3.0 7.0 0.00 0.18 0.02 90 1019.8
20260508065035 45 47 1.0 5.0 0.00 0.18 0.02 90 1019.7
20260508064552 45 55 1.0 5.0 0.00 0.18 0.02 90 1019.7
20260508064100 45 28 2.0 5.0 0.00 0.18 0.02 90 1019.6
20260508063517 45 52 2.0 5.0 0.00 0.18 0.02 91 1019.6
20260508063041 45 63 2.0 5.0 0.00 0.18 0.02 91 1019.6
20260508062559 45 24 2.0 6.0 0.00 0.18 0.02 91 1019.5
20260508062010 45 65 2.0 6.0 0.00 0.18 0.02 91 1019.5
20260508061537 45 30 1.0 4.0 0.00 0.18 0.02 91 1019.5
20260508061048 45 40 1.0 5.0 0.00 0.18 0.02 91 1019.5
20260508060502 44 42 1.0 5.0 0.00 0.18 0.02 91 1019.5
20260508060020 44 51 1.0 6.0 0.00 0.18 0.02 91 1019.4
20260508055545 44 355 2.0 6.0 0.00 0.18 0.02 91 1019.3
20260508055100 44 22 1.0 6.0 0.00 0.18 0.02 91 1019.4
20260508054514 44 11 2.0 6.0 0.00 0.18 0.02 91 1019.4
20260508054031 44 11 0.0 4.0 0.00 0.18 0.02 91 1019.4
20260508053550 44 17 0.0 4.0 0.00 0.18 0.02 91 1019.3
20260508053011 44 17 1.0 5.0 0.00 0.18 0.02 91 1019.3
20260508052528 44 26 2.0 5.0 0.00 0.18 0.02 91 1019.3
20260508052044 44 26 0.0 3.0 0.00 0.18 0.02 91 1019.3
20260508051602 44 65 0.0 2.0 0.00 0.18 0.02 91 1019.3
20260508051016 44 38 0.0 4.0 0.00 0.18 0.02 91 1019.3
20260508050544 44 23 0.0 4.0 0.00 0.18 0.02 91 1019.3
20260508050059 44 19 0.0 4.0 0.00 0.18 0.02 91 1019.2
20260508045511 44 59 2.0 4.0 0.00 0.18 0.02 91 1019.1
20260508045040 44 360 0.0 5.0 0.00 0.18 0.02 91 1019.1
20260508044603 44 73 3.0 5.0 0.00 0.18 0.02 91 1019.0
20260508044014 44 44 2.0 4.0 0.00 0.18 0.02 91 1019.1
20260508043529 44 19 1.0 4.0 0.00 0.18 0.02 91 1019.0
20260508043046 44 38 1.0 4.0 0.00 0.18 0.02 91 1018.9
20260508042510 44 360 1.0 5.0 0.00 0.18 0.02 91 1018.8
20260508042024 44 5 0.0 5.0 0.00 0.18 0.02 91 1018.8
20260508041551 44 5 0.0 4.0 0.00 0.18 0.02 91 1018.8
20260508041047 44 19 0.0 3.0 0.00 0.18 0.02 91 1018.8
20260508040503 44 42 0.0 4.0 0.00 0.18 0.02 91 1018.7
20260508040029 44 5 1.0 4.0 0.00 0.18 0.02 91 1018.6
20260508035546 44 5 0.0 5.0 0.00 0.24 0.02 91 1018.6
20260508035102 44 38 1.0 5.0 0.00 0.24 0.02 91 1018.6
20260508034525 44 5 2.0 5.0 0.00 0.24 0.02 91 1018.5
20260508034042 44 14 3.0 5.0 0.00 0.24 0.02 91 1018.6
20260508033558 44 50 1.0 4.0 0.00 0.24 0.02 91 1018.5
20260508033028 44 24 0.0 1.0 0.00 0.24 0.02 91 1018.5
20260508032536 44 350 0.0 3.0 0.00 0.24 0.02 91 1018.5
20260508032055 44 16 0.0 3.0 0.00 0.24 0.02 91 1018.4
20260508031516 44 336 0.0 4.0 0.00 0.24 0.02 91 1018.5
20260508031032 44 11 1.0 4.0 0.00 0.24 0.02 91 1018.5
20260508030550 44 60 0.0 3.0 0.00 0.24 0.02 91 1018.3
20260508030004 44 360 0.0 2.0 0.00 0.24 0.02 91 1018.5
20260508025522 44 360 0.0 2.0 0.00 0.46 0.02 91 1018.4
20260508025040 44 28 0.0 0.0 0.00 0.46 0.02 91 1018.4
20260508024605 44 28 0.0 2.0 0.00 0.46 0.02 91 1018.4
20260508024018 44 30 0.0 2.0 0.00 0.46 0.02 91 1018.4
20260508023535 44 40 0.0 3.0 0.00 0.46 0.02 91 1018.4
20260508023053 44 13 0.0 3.0 0.00 0.46 0.02 91 1018.4
20260508022516 44 67 1.0 3.0 0.00 0.46 0.02 91 1018.4
20260508022033 44 40 0.0 2.0 0.00 0.46 0.02 91 1018.4
20260508021602 44 9 0.0 2.0 0.00 0.46 0.02 91 1018.3
20260508021012 44 37 0.0 2.0 0.00 0.46 0.02 91 1018.4
20260508020529 44 65 0.0 3.0 0.00 0.46 0.02 91 1018.4
20260508020056 44 13 0.0 3.0 0.00 0.46 0.02 91 1018.3
20260508015509 44 67 0.0 2.0 0.00 0.55 0.02 91 1018.3
20260508015036 44 53 0.0 3.0 0.00 0.55 0.02 91 1018.3
20260508014554 44 32 0.0 4.0 0.00 0.55 0.02 91 1018.2
20260508014007 44 343 1.0 4.0 0.00 0.55 0.02 91 1018.2
20260508013534 44 40 0.0 4.0 0.00 0.55 0.02 91 1018.2
20260508013051 44 86 1.0 4.0 0.00 0.55 0.02 91 1018.2
20260508012506 44 22 0.0 4.0 0.00 0.55 0.02 91 1018.2
20260508012023 44 63 0.0 4.0 0.00 0.55 0.02 91 1018.1
20260508011540 44 63 2.0 4.0 0.00 0.55 0.02 91 1018.2
20260508011050 44 59 1.0 4.0 0.00 0.55 0.02 91 1018.2
20260508010502 44 61 0.0 5.0 0.00 0.55 0.02 91 1018.2
20260508010038 44 19 0.0 4.0 0.00 0.55 0.02 91 1018.2
20260508005544 44 56 1.0 4.0 0.00 0.55 0.02 91 1018.1
20260508005105 44 32 0.0 4.0 0.00 0.55 0.02 91 1018.1
20260508004525 44 41 1.0 4.0 0.00 0.55 0.02 91 1018.0
20260508004043 44 44 1.0 4.0 0.00 0.55 0.02 91 1018.1
20260508003557 44 16 1.0 4.0 0.00 0.55 0.02 91 1018.0
20260508003022 44 39 1.0 3.0 0.00 0.55 0.02 91 1018.1
20260508002536 44 25 0.0 4.0 0.00 0.55 0.02 91 1018.0
20260508002052 44 49 1.0 4.0 0.00 0.55 0.02 91 1018.1
20260508001526 44 57 1.0 5.0 0.00 0.55 0.02 91 1018.2
20260508001034 44 343 1.0 5.0 0.00 0.55 0.02 91 1018.1
20260508000551 44 360 3.0 6.0 0.00 0.55 0.02 91 1018.2
20260508000004 44 16 1.0 8.0 0.00 0.55 0.02 91 1018.1
20260507235530 44 40 3.0 8.0 0.00 0.55 0.02 91 1018.1
20260507235046 44 40 3.0 5.0 0.00 0.55 0.02 91 1018.1
20260507234501 44 13 1.0 4.0 0.00 0.55 0.02 91 1018.2
20260507234027 44 52 1.0 7.0 0.01 0.55 0.02 91 1018.3
20260507233543 44 41 1.0 7.0 0.01 0.55 0.02 91 1018.3
20260507233108 44 28 1.0 3.0 0.01 0.55 0.02 91 1018.4
20260507232523 44 343 0.0 3.0 0.01 0.55 0.02 91 1018.3
20260507232039 44 351 1.0 5.0 0.01 0.55 0.02 91 1018.4
20260507231559 44 346 0.0 5.0 0.01 0.55 0.02 91 1018.3
20260507231019 44 60 0.0 4.0 0.01 0.55 0.02 91 1018.2
20260507230541 44 40 1.0 5.0 0.02 0.55 0.02 91 1018.3
20260507230056 44 31 1.0 5.0 0.02 0.55 0.02 91 1018.3
20260507225516 44 30 0.0 4.0 0.02 0.55 0.02 91 1018.3
20260507225034 44 350 1.0 4.0 0.02 0.55 0.02 91 1018.4
20260507224606 44 16 0.0 3.0 0.02 0.55 0.02 91 1018.4
20260507224011 44 44 0.0 4.0 0.02 0.54 0.01 91 1018.4
20260507223602 44 24 0.0 4.0 0.02 0.54 0.01 91 1018.4
20260507223011 44 34 0.0 3.0 0.02 0.54 0.01 91 1018.5
20260507222538 44 38 0.0 4.0 0.02 0.54 0.01 91 1018.4
20260507222054 44 58 1.0 4.0 0.02 0.54 0.01 91 1018.3
20260507221522 44 59 1.0 4.0 0.02 0.54 0.01 91 1018.4
20260507221032 45 37 1.0 3.0 0.02 0.54 0.01 91 1018.3
20260507220550 45 55 0.0 3.0 0.02 0.54 0.00 91 1018.3
20260507220018 45 43 1.0 5.0 0.02 0.54 0.00 91 1018.3
20260507215529 45 48 1.0 5.0 0.02 0.54 0.54 91 1018.3
20260507215046 45 58 0.0 4.0 0.02 0.54 0.54 91 1018.3
20260507214602 45 59 1.0 4.0 0.02 0.54 0.54 91 1018.3
20260507214012 45 38 0.0 6.0 0.02 0.53 0.53 91 1018.3
20260507213540 45 17 2.0 6.0 0.02 0.53 0.53 91 1018.3
20260507213058 45 48 1.0 4.0 0.02 0.53 0.53 91 1018.2
20260507212512 45 35 0.0 3.0 0.02 0.52 0.52 91 1018.2
20260507212037 45 11 1.0 3.0 0.02 0.52 0.52 91 1018.2
20260507211554 45 37 0.0 5.0 0.02 0.52 0.52 91 1018.0
20260507211015 45 5 1.0 5.0 0.02 0.52 0.52 91 1018.0
20260507210533 45 50 1.0 4.0 0.02 0.52 0.52 91 1018.0
20260507210113 45 43 0.0 4.0 0.01 0.51 0.51 91 1017.9
20260507205514 45 11 1.0 6.0 0.01 0.51 0.51 91 1017.8
20260507205028 45 51 0.0 3.0 0.01 0.51 0.51 91 1017.9
20260507204552 45 36 0.0 6.0 0.01 0.51 0.51 91 1017.7
20260507204104 45 50 3.0 6.0 0.00 0.50 0.50 91 1017.8
20260507203513 45 63 2.0 6.0 0.00 0.50 0.50 91 1017.7
20260507203030 45 28 1.0 5.0 0.00 0.50 0.50 91 1017.6
20260507202550 45 360 1.0 5.0 0.00 0.50 0.50 90 1017.5
20260507202002 45 13 2.0 5.0 0.00 0.50 0.50 90 1017.4
20260507201533 45 14 1.0 3.0 0.00 0.50 0.50 90 1017.4
20260507201044 45 13 0.0 5.0 0.00 0.50 0.50 90 1017.4
20260507200601 45 19 2.0 5.0 0.00 0.50 0.50 90 1017.4
20260507200034 45 32 1.0 6.0 0.00 0.50 0.50 90 1017.2
20260507195539 45 40 2.0 8.0 0.00 0.50 0.50 90 1017.2
20260507195054 45 360 2.0 8.0 0.00 0.50 0.50 90 1017.2
20260507194517 45 46 1.0 5.0 0.00 0.50 0.50 90 1017.2
20260507194032 45 39 1.0 5.0 0.00 0.50 0.50 90 1017.2
20260507193549 45 76 1.0 5.0 0.00 0.50 0.50 90 1017.2
20260507193023 45 26 1.0 6.0 0.00 0.50 0.50 90 1017.1
20260507192530 45 38 2.0 6.0 0.00 0.50 0.50 90 1017.1
20260507192051 45 60 2.0 6.0 0.00 0.50 0.50 90 1017.1
20260507191504 45 17 1.0 8.0 0.00 0.50 0.50 90 1017.0
20260507191016 45 15 2.0 8.0 0.00 0.50 0.50 90 1017.0
20260507190537 45 22 2.0 6.0 0.00 0.50 0.50 90 1016.9
20260507190052 45 30 1.0 9.0 0.00 0.50 0.50 90 1016.9
20260507185504 45 22 3.0 9.0 0.00 0.50 0.50 90 1016.8
20260507185020 45 23 2.0 9.0 0.00 0.50 0.50 90 1016.8
20260507184538 45 34 3.0 7.0 0.00 0.50 0.50 90 1016.8
20260507184057 45 22 1.0 7.0 0.00 0.50 0.50 90 1016.6
20260507183513 45 33 1.0 5.0 0.00 0.50 0.50 90 1016.6
20260507183159 45 37 2.0 6.0 0.00 0.50 0.50 90 1016.6
20260507182501 45 5 1.0 5.0 0.00 0.50 0.50 90 1016.5
20260507182029 45 10 1.0 9.0 0.00 0.50 0.50 90 1016.4